Location: Milton Keynes
(52.0316°N, 0.7531°W)
Time: 10:44:37
(UTC+00:00)

N. Korean satellite - Pass Details

Date: 31 January 2019
Orbit: 456 x 510 km, 97.2° (Epoch: 21 February)

Event Time Altitude Azimuth Distance (km) Brightness Sun altitude
Rises 05:00:40 0° 32° (NNE) 2,599 10.8 -25.3°
Reaches altitude 10° 05:04:38 10° 76° (ENE) 1,690 10.3 -24.7°
Maximum altitude 05:05:15 10° 86° (E) 1,665 10.3 -24.6°
Drops below altitude 10° 05:05:52 10° 95° (E) 1,683 10.3 -24.5°
Sets 05:09:45 0° 139° (SE) 2,536 10.8 -23.9°
